Location: Huntsville
(41.2590°N, 111.7678°W)
Time: 20:55:12
(UTC+00:00)

ISS - Pass Details

Date: 10 December 2021
Orbit: 413 x 422 km, 51.6° (Epoch: 25 January)

Event Time Altitude Azimuth Distance (km) Brightness Sun altitude
Rises 01:26:53 0° 290° (WNW) 2,380 1.0 -16.2°
Reaches altitude 10° 01:29:40 10° 265° (W) 1,507 0.3 -16.7°
Maximum altitude 01:31:37 15° 230° (SW) 1,249 -0.4 -17.0°
Drops below altitude 10° 01:33:35 10° 194° (SSW) 1,497 -0.6 -17.4°
Enters shadow 01:40:05 -10° 156° (SSE) 3,765 1.0 -18.5°
